Weather History for Salmon, ID

Change the Weather History Date:

Wednesday, August 7, 2013

  Actual Average Record
Temperature  
Mean Temperature 68 °F -  
Max Temperature 91 °F 82 °F 101 °F (1970)
Min Temperature 46 °F 48 °F 39 °F (1996)
Cooling Degree Days 4    
Growing Degree Days 18 (Base 50)    
Moisture  
Dew Point 37 °F    
Average Humidity 40    
Maximum Humidity 82    
Minimum Humidity 10    
Precipitation  
Precipitation 10.03 in - - ()
Sea Level Pressure  
Sea Level Pressure 30.00 in    
Wind  
Wind Speed 3 mph (North)    
Max Wind Speed 22 mph    
Max Gust Speed 26 mph    
Visibility 10 miles    
Events      
Averages and records for this station are not official NWS values.
T = Trace of Precipitation, MM = Missing Value Source: NWS Daily Summary

Daily Weather History Graph

Daily Weather History Graph

Search for Another Location

Airport:

Trip Planner

Search our weather history database for the weather conditions in past years. The results will help you decide how hot, cold, wet, or windy it might be!

Date:

Astronomy

Aug. 07, 2013 Rise Set
Actual Time 6:27 AM MDT 8:53 PM MDT
Civil Twilight 5:54 AM MDT 9:26 PM MDT
Nautical Twilight 5:13 AM MDT 10:07 PM MDT
Astronomical Twilight 4:26 AM MDT 10:54 PM MDT
Moon 7:25 AM MDT (8/7) 8:56 PM MDT (8/7)
Length of Visible Light 15h 31m
Length of Day
14h 25m
New Moon, 1% of the Moon is Illuminated
Aug 7
New Moon
Aug 14
First Quarter
Aug 20
Full
Aug 28
Last Quarter
Sep 5
New

Hourly Weather History & Observations

Time (MDT) Temp. Dew Point Humidity Pressure Visibility Wind Dir Wind Speed Gust Speed Precip Events Conditions
12:15 AM 64.4 °F 39.2 °F 40% 30.03 in 10.0 mi SE 4.6 mph - N/A   Clear
12:35 AM 62.6 °F 41.0 °F 45% 30.03 in 10.0 mi South 3.5 mph - N/A   Clear
12:55 AM 62.6 °F 41.0 °F 45% 30.04 in 10.0 mi Calm Calm - N/A   Clear
1:15 AM 62.6 °F 39.2 °F 42% 30.04 in 10.0 mi Calm Calm - N/A   Clear
1:35 AM 59.0 °F 39.2 °F 48% 30.04 in 10.0 mi Calm Calm - N/A   Clear
1:55 AM 57.2 °F 42.8 °F 59% 30.05 in 10.0 mi North 4.6 mph - N/A   Clear
2:15 AM 55.4 °F 42.8 °F 63% 30.05 in 10.0 mi Calm Calm - N/A   Clear
2:35 AM 53.6 °F 44.6 °F 72% 30.05 in 10.0 mi Calm Calm - N/A   Clear
2:55 AM 53.6 °F 44.6 °F 72% 30.05 in 10.0 mi Calm Calm - N/A   Clear
3:15 AM 53.6 °F 44.6 °F 72% 30.05 in 10.0 mi Calm Calm - N/A   Clear
3:35 AM 53.6 °F 41.0 °F 62% 30.05 in 10.0 mi Calm Calm - N/A   Clear
3:55 AM 51.8 °F 41.0 °F 67% 30.05 in 10.0 mi Calm Calm - N/A   Clear
4:15 AM 51.8 °F 41.0 °F 67% 30.06 in 10.0 mi Calm Calm - N/A   Clear
4:35 AM 51.8 °F 42.8 °F 71% 30.06 in 10.0 mi Calm Calm - N/A   Clear
4:55 AM 50.0 °F 42.8 °F 76% 30.06 in 10.0 mi Calm Calm - N/A   Clear
5:15 AM 48.2 °F 41.0 °F 76% 30.07 in 10.0 mi Calm Calm - N/A   Clear
5:35 AM 48.2 °F 39.2 °F 71% 30.07 in 10.0 mi Calm Calm - N/A   Clear
5:55 AM 48.2 °F 39.2 °F 71% 30.07 in 10.0 mi Calm Calm - N/A   Clear
6:15 AM 48.2 °F 39.2 °F 71% 30.07 in 10.0 mi Calm Calm - N/A   Clear
6:35 AM 46.4 °F 39.2 °F 76% 30.08 in 10.0 mi Calm Calm - N/A   Clear
6:55 AM 48.2 °F 37.4 °F 66% 30.09 in 10.0 mi Calm Calm - N/A   Clear
7:15 AM 48.2 °F 39.2 °F 71% 30.09 in 10.0 mi Calm Calm - N/A   Clear
7:35 AM 50.0 °F 44.6 °F 82% 30.09 in 10.0 mi Calm Calm - N/A   Clear
7:55 AM 53.6 °F 41.0 °F 62% 30.09 in 10.0 mi Calm Calm - N/A   Clear
8:15 AM 53.6 °F 44.6 °F 72% 30.10 in 10.0 mi Calm Calm - N/A   Clear
8:35 AM 55.4 °F 44.6 °F 67% 30.10 in 10.0 mi Calm Calm - N/A   Clear
8:55 AM 57.2 °F 44.6 °F 63% 30.09 in 10.0 mi Calm Calm - N/A   Clear
9:15 AM 60.8 °F 44.6 °F 55% 30.09 in 10.0 mi Calm Calm - N/A   Clear
9:35 AM 60.8 °F 44.6 °F 55% 30.09 in 10.0 mi Calm Calm - N/A   Clear
9:55 AM 64.4 °F 39.2 °F 40% 30.08 in 10.0 mi Calm Calm - N/A   Clear
10:15 AM - - N/A% - - North - - 6.94 in   Unknown
10:35 AM - - N/A% - - North - - 6.94 in   Unknown
10:55 AM - - N/A% - - North - - 6.94 in   Unknown
11:15 AM - - N/A% - - North - - N/A   Unknown
11:35 AM - - N/A% - - North - - N/A   Unknown
11:55 AM - - N/A% - - North - - N/A   Unknown
12:15 PM 75.2 °F 41.0 °F 29% 30.03 in 10.0 mi North 4.6 mph - 3.09 in   Clear
12:35 PM 77.0 °F 41.0 °F 28% 30.02 in 10.0 mi Calm Calm - 3.09 in   Clear
12:55 PM 77.0 °F 41.0 °F 28% 30.01 in 10.0 mi NNW 4.6 mph - 3.09 in   Clear
1:15 PM 80.6 °F 41.0 °F 24% 29.99 in 10.0 mi NNW 3.5 mph - N/A   Clear
1:35 PM 82.4 °F 42.8 °F 25% 29.98 in 10.0 mi NNW 4.6 mph - N/A   Clear
1:55 PM 84.2 °F 37.4 °F 19% 29.97 in 10.0 mi North 6.9 mph - N/A   Clear
2:15 PM 84.2 °F 35.6 °F 18% 29.96 in 10.0 mi NNE 9.2 mph - N/A   Clear
2:35 PM 86.0 °F 35.6 °F 17% 29.95 in 10.0 mi NW 4.6 mph - N/A   Clear
2:55 PM 87.8 °F 33.8 °F 15% 29.94 in 10.0 mi ENE 5.8 mph - N/A   Clear
3:15 PM 87.8 °F 32.0 °F 14% 29.94 in 10.0 mi WNW 3.5 mph - N/A   Clear
3:35 PM 89.6 °F 30.2 °F 12% 29.93 in 10.0 mi NNE 11.5 mph - N/A   Clear
3:55 PM 89.6 °F 28.4 °F 11% 29.92 in 10.0 mi NNW 20.7 mph 25.3 mph N/A   Clear
4:15 PM 89.6 °F 28.4 °F 11% 29.91 in 10.0 mi North 19.6 mph 26.5 mph N/A   Clear
4:35 PM 91.4 °F 28.4 °F 10% 29.90 in 10.0 mi NNW 21.9 mph 25.3 mph N/A   Clear
4:55 PM 91.4 °F 28.4 °F 10% 29.89 in 10.0 mi NNW 18.4 mph 26.5 mph N/A   Clear
5:15 PM 89.6 °F 28.4 °F 11% 29.89 in 10.0 mi North 17.3 mph 24.2 mph N/A   Clear
5:35 PM 89.6 °F 28.4 °F 11% 29.89 in 10.0 mi NW 13.8 mph 20.7 mph N/A   Clear
5:55 PM 89.6 °F 28.4 °F 11% 29.89 in 10.0 mi North 11.5 mph 16.1 mph N/A   Clear
6:15 PM 89.6 °F 28.4 °F 11% 29.89 in 10.0 mi North 11.5 mph 17.3 mph N/A   Clear
6:35 PM 89.6 °F 28.4 °F 11% 29.88 in 10.0 mi North 9.2 mph 16.1 mph N/A   Clear
6:55 PM 89.6 °F 28.4 °F 11% 29.88 in 10.0 mi NW 6.9 mph 16.1 mph N/A   Clear
7:15 PM 87.8 °F 28.4 °F 12% 29.88 in 10.0 mi NW 9.2 mph - N/A   Clear
7:35 PM 82.4 °F 35.6 °F 19% 29.88 in 10.0 mi North 10.4 mph - N/A   Clear
7:55 PM 80.6 °F 33.8 °F 18% 29.89 in 10.0 mi North 9.2 mph - N/A   Clear
8:15 PM 78.8 °F 32.0 °F 18% 29.89 in 10.0 mi North 6.9 mph - N/A   Clear
8:35 PM 75.2 °F 35.6 °F 24% 29.90 in 10.0 mi NE 4.6 mph - N/A   Clear
8:55 PM 73.4 °F 32.0 °F 22% 29.91 in 10.0 mi NNE 5.8 mph - N/A   Clear
9:15 PM 71.6 °F 30.2 °F 22% 29.93 in 10.0 mi Calm Calm - N/A   Clear
9:55 PM 64.4 °F 37.4 °F 37% 29.95 in 10.0 mi SSE 4.6 mph - N/A   Clear
10:15 PM 66.2 °F 37.4 °F 35% 29.96 in 10.0 mi South 5.8 mph - N/A   Clear
10:35 PM 69.8 °F 28.4 °F 21% 29.97 in 10.0 mi Calm Calm - N/A   Clear
10:55 PM 66.2 °F 30.2 °F 26% 29.97 in 10.0 mi South 3.5 mph - N/A   Clear
11:15 PM 66.2 °F 30.2 °F 26% 29.99 in 10.0 mi SE 5.8 mph - N/A   Clear
11:35 PM 62.6 °F 30.2 °F 30% 29.99 in 10.0 mi SE 4.6 mph - N/A   Clear
11:55 PM 64.4 °F 28.4 °F 26% 30.00 in 10.0 mi Calm Calm - N/A   Clear